TimeEST,TemperatureF,Dew PointF,Humidity,Sea Level PressureIn,VisibilityMPH,Wind Direction,Wind SpeedMPH,Gust SpeedMPH,PrecipitationIn,Events,Conditions,WindDirDegrees,DateUTC
12:15 AM,51.8,50.0,94,30.06,10.0,West,8.1,-,0.00,,Clear,270,2013-02-20 05:15:00
12:35 AM,51.8,48.2,88,30.06,10.0,West,6.9,-,0.00,,Clear,270,2013-02-20 05:35:00
12:55 AM,50.0,48.2,94,30.07,10.0,Calm,Calm,-,0.00,,Clear,0,2013-02-20 05:55:00
1:15 AM,48.2,46.4,93,30.07,10.0,Calm,Calm,-,0.00,,Clear,0,2013-02-20 06:15:00
1:35 AM,48.2,46.4,93,30.08,10.0,Calm,Calm,-,0.00,,Clear,0,2013-02-20 06:35:00
2:15 AM,46.4,44.6,93,30.08,10.0,West,3.5,-,0.00,,Clear,260,2013-02-20 07:15:00
2:35 AM,46.4,42.8,87,30.08,10.0,West,4.6,-,0.00,,Clear,270,2013-02-20 07:35:00
2:55 AM,44.6,42.8,93,30.09,10.0,West,5.8,-,0.00,,Clear,280,2013-02-20 07:55:00
3:15 AM,44.6,39.2,81,30.09,10.0,West,6.9,-,0.00,,Clear,280,2013-02-20 08:15:00
3:35 AM,44.6,39.2,81,30.09,10.0,West,4.6,-,0.00,,Clear,280,2013-02-20 08:35:00
3:55 AM,42.8,37.4,81,30.09,10.0,West,3.5,-,0.00,,Clear,270,2013-02-20 08:55:00
4:15 AM,42.8,37.4,81,30.10,10.0,Calm,Calm,-,0.00,,Clear,0,2013-02-20 09:15:00
4:35 AM,41.0,37.4,87,30.10,10.0,Calm,Calm,-,0.00,,Clear,0,2013-02-20 09:35:00
4:55 AM,39.2,37.4,93,30.10,6.0,Calm,Calm,-,0.00,,Clear,0,2013-02-20 09:55:00
5:15 AM,37.4,37.4,100,30.10,1.0,Calm,Calm,-,0.00,,Clear,0,2013-02-20 10:15:00
5:35 AM,37.4,35.6,93,30.11,6.0,Calm,Calm,-,0.00,,Clear,0,2013-02-20 10:35:00
5:55 AM,35.6,33.8,93,30.11,5.0,Calm,Calm,-,0.00,,Clear,0,2013-02-20 10:55:00
6:15 AM,35.6,35.6,100,30.12,4.0,Calm,Calm,-,0.00,,Clear,0,2013-02-20 11:15:00
6:35 AM,35.6,33.8,93,30.13,4.0,Calm,Calm,-,0.00,,Clear,0,2013-02-20 11:35:00
7:15 AM,33.8,33.8,100,30.14,9.0,Calm,Calm,-,0.00,,Clear,0,2013-02-20 12:15:00
7:35 AM,35.6,33.8,93,30.15,10.0,Calm,Calm,-,0.00,,Clear,0,2013-02-20 12:35:00
7:55 AM,37.4,35.6,93,30.16,10.0,Calm,Calm,-,0.00,,Clear,0,2013-02-20 12:55:00
8:35 AM,42.8,33.8,70,30.17,10.0,NW,5.8,-,0.00,,Clear,310,2013-02-20 13:35:00
8:55 AM,44.6,33.8,66,30.17,10.0,NW,6.9,-,0.00,,Clear,320,2013-02-20 13:55:00
9:15 AM,44.6,32.0,61,30.18,10.0,NW,8.1,-,0.00,,Clear,320,2013-02-20 14:15:00
9:35 AM,46.4,32.0,57,30.18,10.0,NNW,8.1,-,0.00,,Clear,330,2013-02-20 14:35:00
10:15 AM,48.2,32.0,54,30.16,10.0,Calm,Calm,-,0.00,,Clear,0,2013-02-20 15:15:00
10:35 AM,50.0,30.2,47,30.16,10.0,Calm,Calm,-,0.00,,Clear,0,2013-02-20 15:35:00
10:55 AM,51.8,30.2,44,30.16,10.0,North,4.6,-,0.00,,Clear,10,2013-02-20 15:55:00
11:15 AM,53.6,28.4,38,30.17,10.0,Calm,Calm,-,0.00,,Clear,0,2013-02-20 16:15:00
11:35 AM,51.8,28.4,41,30.17,10.0,Calm,Calm,-,0.00,,Clear,0,2013-02-20 16:35:00
11:55 AM,53.6,26.6,35,30.16,10.0,Calm,Calm,-,0.00,,Clear,0,2013-02-20 16:55:00
12:15 PM,53.6,23.0,30,30.14,10.0,Calm,Calm,-,0.00,,Clear,0,2013-02-20 17:15:00
12:35 PM,53.6,23.0,30,30.13,10.0,Calm,Calm,-,0.00,,Clear,0,2013-02-20 17:35:00
12:55 PM,55.4,26.6,33,30.13,10.0,SSE,3.5,-,0.00,,Clear,160,2013-02-20 17:55:00
1:15 PM,55.4,26.6,33,30.11,10.0,ESE,4.6,-,0.00,,Clear,110,2013-02-20 18:15:00
1:55 PM,55.4,32.0,41,30.09,10.0,South,9.2,-,0.00,,Clear,180,2013-02-20 18:55:00
2:15 PM,55.4,30.2,38,30.09,10.0,SSE,5.8,-,0.00,,Clear,150,2013-02-20 19:15:00
2:35 PM,53.6,30.2,41,30.09,10.0,SSE,9.2,-,0.00,,Clear,150,2013-02-20 19:35:00
3:15 PM,53.6,28.4,38,30.10,10.0,SSE,6.9,-,0.00,,Clear,160,2013-02-20 20:15:00
3:55 PM,53.6,28.4,38,30.10,10.0,South,8.1,-,0.00,,Clear,180,2013-02-20 20:55:00
4:15 PM,55.4,28.4,36,30.10,10.0,SSW,8.1,-,0.00,,Clear,200,2013-02-20 21:15:00
4:35 PM,53.6,30.2,41,30.08,10.0,South,6.9,-,0.00,,Clear,190,2013-02-20 21:35:00
4:55 PM,51.8,30.2,44,30.08,10.0,South,8.1,-,0.00,,Clear,180,2013-02-20 21:55:00
5:15 PM,53.6,28.4,38,30.09,10.0,SSW,8.1,-,0.00,,Clear,200,2013-02-20 22:15:00
5:35 PM,51.8,30.2,44,30.10,10.0,SSW,6.9,-,0.00,,Clear,200,2013-02-20 22:35:00
5:55 PM,51.8,32.0,47,30.10,10.0,SSW,5.8,-,0.00,,Clear,210,2013-02-20 22:55:00
6:15 PM,50.0,32.0,50,30.11,10.0,SSW,4.6,-,0.00,,Clear,210,2013-02-20 23:15:00
6:35 PM,48.2,32.0,54,30.12,10.0,Calm,Calm,-,0.00,,Clear,0,2013-02-20 23:35:00
6:55 PM,48.2,32.0,54,30.12,10.0,Calm,Calm,-,0.00,,Clear,0,2013-02-20 23:55:00
7:15 PM,48.2,32.0,54,30.12,10.0,Calm,Calm,-,0.00,,Clear,0,2013-02-21 00:15:00
7:35 PM,48.2,32.0,54,30.13,10.0,WSW,4.6,-,0.00,,Clear,240,2013-02-21 00:35:00
7:55 PM,48.2,32.0,54,30.13,10.0,Calm,Calm,-,0.00,,Partly Cloudy,0,2013-02-21 00:55:00
8:15 PM,48.2,32.0,54,30.12,10.0,Calm,Calm,-,0.00,,Clear,0,2013-02-21 01:15:00
8:35 PM,48.2,33.8,58,30.12,10.0,WSW,3.5,-,0.00,,Clear,240,2013-02-21 01:35:00
8:55 PM,48.2,33.8,58,30.10,10.0,SW,4.6,-,0.00,,Clear,220,2013-02-21 01:55:00
9:15 PM,48.2,35.6,62,30.11,10.0,SW,4.6,-,0.00,,Clear,220,2013-02-21 02:15:00
9:35 PM,48.2,35.6,62,30.10,10.0,Calm,Calm,-,0.00,,Scattered Clouds,0,2013-02-21 02:35:00
10:15 PM,48.2,37.4,66,30.12,10.0,Calm,Calm,-,0.00,,Overcast,0,2013-02-21 03:15:00
10:35 PM,46.4,37.4,71,30.12,10.0,Calm,Calm,-,0.00,,Mostly Cloudy,0,2013-02-21 03:35:00
10:55 PM,46.4,39.2,76,30.12,10.0,Calm,Calm,-,0.00,,Partly Cloudy,0,2013-02-21 03:55:00
11:35 PM,42.8,37.4,81,30.11,10.0,Calm,Calm,-,0.00,,Clear,0,2013-02-21 04:35:00
11:55 PM,42.8,37.4,81,30.12,10.0,Calm,Calm,-,0.00,,Clear,0,2013-02-21 04:55:00